星链-34257 (STARLINK-34257)

导读

STARLINK-34257是美国太空探索技术公司SpaceX星链星座的一员,于2025年8月14日发射入轨。星链星座旨在构建全球低轨卫星互联网,为全球偏远、基础设施薄弱区域提供高速低延迟宽带服务。STARLINK-34257采用平板设计,配备氪工质霍尔推进器,具备自主避撞能力,寿命末期将主动离轨再入大气层烧毁。

Basic Information
目录编号:
65225
目录名称:
STARLINK-34257
国际标识:
2025-176AD
轨道中心:
EARTH
卫星名称:
星链-34257
卫星全名:
星链-34257 (STARLINK-34257)
卫星状态:
在轨 (已飞行386 天)
发射日期:
2025-08-14 UTC
国别 :
美国 (US)
星等 :
--
Orbit Information
数据来源 国际轨道数据 AOE轨道数据
星历时间 2026-09-04T06:56:47+0800
13小时前
查看轨道信息
2026-09-01T02:00:00+0800
3天前
查看轨道信息
半长轴 6840.868km 6840.809km
偏心率 0.0000616 0.0000637
轨道倾角 53.161° 53.157°
近地点辐角 100.766° 76.140°
升交点赤经 41.162° 56.150°
平近点角 259.341° 204.144°
近地点 462.309km 462.236km
远地点 463.153km 463.108km
周期 93.848分钟 93.847分钟
每日圈数 15.343908 15.344106
Detailed Information
固有亮度:
5
最大亮度:
2.5
卫星平台:
Starlink V1.0
覆盖范围:
全球
运营商:
太空探索技术公司
运营商所在国:
美国
制造商(研发单位):
太空探索技术公司
制造商所在国:
美国
使用方式:
暂无
Satellite Introduction
Starlink 计划是 SpaceX 推出的全球卫星互联网项目,通过发射低轨道卫星,为全球尤其是偏远地区提供高速、低延迟的互联网服务。自 2019 年起,Starlink 已部署数千颗卫星,旨在缩小全球数字鸿沟,推动互联网普及。该项目还为军事、航空等行业提供通信支持,带来广泛经济效益。
2D Orbit Map
3D Orbit Map
Orbit Altitude Analysis Chart
Orbit Inclination Analysis Chart
Orbit Comprehensive Analysis Chart
View Comprehensive Chart
Conjunction Data List
Event ID Objects TCA Miss Dist (km) Collision Risk Probability Collision Risk Index (CRI) Action
CDM_260827-183106-522506-602321
2026-08-27T
18:31:56+0000
0.512 km
远距离
9.886196E-5 中风险 0.75
CDM_260906-090806-287106-522521
2026-09-06T
09:08:51+0000
1.141 km
极远距离
4.974088E-6 低风险 0.49
CDM_260904-100403-944206-522521
2026-09-04T
10:04:45+0000
2.506 km
极远距离
1.726358E-6 低风险 0.4